• MPC Preparation (Info)

  • MPEC 2008-E123: 2008 EH85

    The following Minor Planet Electronic Circular may be linked-to from your own Web pages, but must not otherwise be redistributed electronically.

    A form allowing access to any MPEC is at the bottom of this page.


    Read MPEC 2008-E122 Read MPEC 2008-E124


    M.P.E.C. 2008-E123                               Issued 2008 Mar. 15, 11:59 UT
    
         The Minor Planet Electronic Circulars contain information on unusual
             minor planets and routine data on comets.  They are published
       on behalf of Commission 20 of the International Astronomical Union by the
              Minor Planet Center, Smithsonian Astrophysical Observatory,
                              Cambridge, MA 02138, U.S.A.
    
                 Prepared using the Tamkin Foundation Computer Network
    
                                  MPC@CFA.HARVARD.EDU
              URL http://www.cfa.harvard.edu/iau/mpc.html  ISSN 1523-6714
    
                                       2008 EH85
    
    Observations:
         K08E85H  C2008 03 13.37475 11 30 59.04 +01 04 16.6          20.4 V EE123G96
         K08E85H  C2008 03 13.38186 11 30 56.05 +01 03 48.0          20.9 V EE123G96
         K08E85H  C2008 03 13.38896 11 30 53.06 +01 03 19.5          20.5 V EE123G96
         K08E85H  C2008 03 13.39601 11 30 50.14 +01 02 51.6          20.4 V EE123G96
         K08E85H* C2008 03 13.43505 11 30 33.91 +01 00 14.5          21.1 V EE123G96
         K08E85H  C2008 03 13.43594 11 30 33.51 +01 00 10.6          20.7 V EE123G96
         K08E85H  C2008 03 13.43682 11 30 33.15 +01 00 07.4          20.4 V EE123G96
         K08E85H  C2008 03 13.43770 11 30 32.86 +01 00 03.5          20.5 V EE123G96
         K08E85H  C2008 03 14.35674 11 24 15.91 -00 02 31.1          21.5 V EE123G96
         K08E85H  C2008 03 14.35727 11 24 15.69 -00 02 33.3          21.3 V EE123G96
         K08E85H  C2008 03 14.35781 11 24 15.44 -00 02 35.7          21.6 V EE123G96
         K08E85H  C2008 03 14.35835 11 24 15.22 -00 02 37.8          21.5 V EE123G96
         K08E85H  C2008 03 14.35917 11 24 14.87 -00 02 41.4          21.3 V EE123G96
         K08E85H  C2008 03 14.35970 11 24 14.65 -00 02 43.1          21.4 V EE123G96
         K08E85H  C2008 03 14.36023 11 24 14.38 -00 02 46.1                 EE123G96
         K08E85H  C2008 03 14.36077 11 24 14.16 -00 02 47.6          21.0 V EE123G96
         K08E85H  C2008 03 15.23869 11 18 04.21 -01 04 22.5          22.3 V EE123G96
         K08E85H  C2008 03 15.23939 11 18 03.85 -01 04 25.9          21.1 V EE123G96
         K08E85H  C2008 03 15.24010 11 18 03.63 -01 04 28.7          20.9 V EE123G96
         K08E85H  C2008 03 15.24080 11 18 03.27 -01 04 31.5          22.3 V EE123G96
    
    Observer details:
    G96 Mt. Lemmon Survey.  Observers R. E. Hill, A. R. Gibbs.  Measurers
        E. C. Beshore, A. Boattini, G. J. Garradd, A. R. Gibbs, A. D. Grauer,
        R. E. Hill, R. A. Kowalski, S. M. Larson, R. H. McNaught.  1.5-m reflector
        + CCD.
    
    Orbital elements:
    2008 EH85                                                Earth MOID = 0.0758 AU
    Epoch 2008 May 14.0 TT = JDT 2454600.5                  MPC
    M 319.49211              (2000.0)            P               Q
    n   0.82503261     Peri.  301.07419     +0.40788526     +0.91125693
    a   1.1258710      Node   352.31586     -0.62294524     +0.23216984
    e   0.2657709      Incl.   25.19665     -0.66750944     +0.34015875
    P   1.19           H   23.8           G   0.15           U   9
    Residuals in seconds of arc
    080313 G96  0.4+  0.0     080313 G96  0.8+  0.2-    080314 G96  0.3-  0.5-
    080313 G96  0.1+  0.1-    080314 G96  0.0   0.0     080314 G96  0.1-  0.2+
    080313 G96  0.4-  0.1-    080314 G96  0.2+  0.0     080315 G96  0.0   0.2+
    080313 G96  0.1-  0.3+    080314 G96  0.1-  0.1-    080315 G96  0.7-  0.2-
    080313 G96  0.0   0.1+    080314 G96  0.1+  0.0     080315 G96  0.7+  0.0
    080313 G96  0.4-  0.2-    080314 G96  0.2+  0.2-    080315 G96  0.1-  0.2+
    080313 G96  0.4-  0.1+    080314 G96  0.3+  0.3+
    
    Ephemeris:
    2008 EH85                a,e,i = 1.13, 0.27, 25                  q = 0.8266
    Date    TT    R. A. (2000) Decl.     Delta      r     Elong.  Phase     V
    2008 03 15    11 19.76   -00 47.0    0.208    1.202   174.1     4.9    21.2
    2008 03 16    11 12.56   -01 58.6    0.205    1.198   171.3     7.2    21.3
    2008 03 17    11 05.15   -03 12.0    0.202    1.194   168.4     9.6    21.3
    2008 03 18    10 57.57   -04 26.9    0.200    1.190   165.5    12.1    21.4
    2008 03 19    10 49.83   -05 43.0    0.198    1.186   162.6    14.6    21.5
    2008 03 20    10 41.96   -06 59.8    0.197    1.182   159.6    17.1    21.5
    2008 03 21    10 33.98   -08 16.9    0.196    1.178   156.6    19.6    21.6
    2008 03 22    10 25.92   -09 33.9    0.195    1.174   153.6    22.2    21.7
    2008 03 23    10 17.82   -10 50.3    0.194    1.170   150.6    24.8    21.7
    2008 03 24    10 09.70   -12 05.8    0.194    1.166   147.6    27.3    21.8
    2008 03 25    10 01.59   -13 19.8    0.195    1.162   144.6    29.8    21.9
    2008 03 26    09 53.52   -14 32.1    0.196    1.158   141.7    32.3    21.9
    2008 03 27    09 45.53   -15 42.4    0.197    1.153   138.8    34.7    22.0
    2008 03 28    09 37.63   -16 50.3    0.198    1.149   136.0    37.1    22.1
    2008 03 29    09 29.85   -17 55.7    0.200    1.145   133.2    39.4    22.2
    2008 03 30    09 22.22   -18 58.4    0.202    1.141   130.6    41.7    22.2
    2008 03 31    09 14.75   -19 58.3    0.205    1.136   127.9    43.9    22.3
    2008 04 01    09 07.46   -20 55.4    0.207    1.132   125.4    46.0    22.4
    2008 04 02    09 00.36   -21 49.6    0.210    1.128   122.9    48.1    22.5
    2008 04 03    08 53.46   -22 41.0    0.214    1.124   120.5    50.0    22.6
    2008 04 04    08 46.78   -23 29.6    0.217    1.119   118.2    51.9    22.6
    
    Timothy B. Spahr             (C) Copyright 2008 MPC           M.P.E.C. 2008-E123
    

    Read MPEC 2008-E122 Read MPEC 2008-E124


    MPEC number:

    Enter an MPEC number in one of the following forms:

    • 1997-B01 (the full form)
    • J97B01 (the packed version of the full form)
    • B01 (the abbreviated form)